Location: Clermont
(50.2608°N, 4.3172°E)
Time: 10:29:42
(UTC+00:00)

Cosmos 1271 Rocket - Pass Details

Date: 13 August 2020
Orbit: 499 x 545 km, 81.2° (Epoch: 20 September)

Event Time Altitude Azimuth Distance (km) Brightness Sun altitude
Rises 23:05:41 0° 342° (NNW) 2,622 7.7 -24.8°
Reaches altitude 10° 23:07:53 10° 335° (NNW) 1,737 6.3 -24.9°
Enters shadow 23:10:47 37° 293° (WNW) 812 3.8 -25.0°
